AMQ1465 EPKT-LOWW

Flight info

Callsign AMQ1465
Flight time 0h 36m
Altitude 26000
Route TUSIN DCT MIKOV MIKOV8W
Aircraft A320/M-SDE3FGHIRWY/LB1

Departure

Time 2026-05-04 23:35
Airport Katowice Wojciech Korfanty International Airport (EPKT)

Arrival

Time 2026-05-05 00:11
Airport Vienna International Airport (LOWW)
Time Latitude Longitude Altitude Speed Heading
2026-05-04 23:12 50.47151 19.08186 993 ft 0 kts 177°
2026-05-04 23:26 50.47159 19.08185 997 ft 3 kts 176°
2026-05-04 23:26 50.47179 19.08183 995 ft 3 kts 172°
2026-05-04 23:26 50.47199 19.08177 995 ft 3 kts 165°
2026-05-04 23:26 50.47218 19.08168 993 ft 3 kts 148°
2026-05-04 23:27 50.47231 19.08150 999 ft 3 kts 107°
2026-05-04 23:27 50.47233 19.08135 992 ft 1 kts 89°
2026-05-04 23:27 50.47233 19.08132 992 ft 0 kts 89°
2026-05-04 23:30 50.47233 19.08189 993 ft 17 kts 90°
2026-05-04 23:30 50.47232 19.08386 997 ft 18 kts 90°
2026-05-04 23:31 50.47228 19.08587 998 ft 19 kts 91°
2026-05-04 23:31 50.47225 19.08793 998 ft 19 kts 91°
2026-05-04 23:31 50.47221 19.09002 999 ft 19 kts 91°
2026-05-04 23:31 50.47217 19.09203 1001 ft 17 kts 92°
2026-05-04 23:32 50.47234 19.09346 1002 ft 12 kts 63°
2026-05-04 23:32 50.47295 19.09391 1002 ft 9 kts 359°
2026-05-04 23:32 50.47354 19.09389 1002 ft 8 kts 360°
2026-05-04 23:32 50.47402 19.09393 1003 ft 6 kts
2026-05-04 23:33 50.47471 19.09395 1003 ft 14 kts 360°
2026-05-04 23:33 50.47489 19.09395 1003 ft 0 kts 360°
2026-05-04 23:33 50.47534 19.09396 1003 ft 13 kts 360°
2026-05-04 23:34 50.47598 19.09336 1003 ft 10 kts 287°
2026-05-04 23:34 50.47602 19.09239 1004 ft 10 kts 264°
2026-05-04 23:34 50.47602 19.08930 1000 ft 61 kts 270°
2026-05-04 23:34 50.47603 19.07901 988 ft 125 kts 271°
2026-05-04 23:35 50.47603 19.06282 1035 ft 167 kts 268°
2026-05-04 23:35 50.47630 19.04490 1738 ft 163 kts 267°
2026-05-04 23:35 50.47637 19.02704 2402 ft 166 kts 264°
2026-05-04 23:35 50.47628 19.00779 2710 ft 188 kts 263°
2026-05-04 23:36 50.47308 18.98720 2921 ft 206 kts 235°
2026-05-04 23:36 50.46170 18.97219 3270 ft 230 kts 206°
2026-05-04 23:36 50.44620 18.96263 3889 ft 244 kts 202°
2026-05-04 23:36 50.43004 18.95339 4717 ft 250 kts 202°
2026-05-04 23:37 50.41347 18.94404 5501 ft 257 kts 202°
2026-05-04 23:37 50.39642 18.93439 6303 ft 263 kts 201°
2026-05-04 23:37 50.37902 18.92446 7070 ft 269 kts 201°
2026-05-04 23:37 50.36148 18.91387 7901 ft 272 kts 204°
2026-05-04 23:38 50.34392 18.90232 8725 ft 275 kts 204°
2026-05-04 23:38 50.32625 18.89033 9559 ft 278 kts 205°
2026-05-04 23:38 50.30839 18.87813 10286 ft 285 kts 205°
2026-05-04 23:38 50.28946 18.86521 10539 ft 308 kts 205°
2026-05-04 23:39 50.26902 18.85135 10734 ft 331 kts 204°
2026-05-04 23:39 50.24746 18.83684 11225 ft 342 kts 204°
2026-05-04 23:39 50.22549 18.82214 11928 ft 345 kts 204°
2026-05-04 23:39 50.20329 18.80732 12664 ft 348 kts 204°
2026-05-04 23:40 50.18094 18.79244 13399 ft 350 kts 204°
2026-05-04 23:40 50.15847 18.77749 14086 ft 353 kts 204°
2026-05-04 23:40 50.13600 18.76258 14700 ft 356 kts 204°
2026-05-04 23:40 50.11311 18.74741 15308 ft 359 kts 204°
2026-05-04 23:41 50.08993 18.73211 15915 ft 363 kts 204°
2026-05-04 23:41 50.06658 18.71667 16515 ft 366 kts 204°
2026-05-04 23:41 50.04300 18.70109 17112 ft 369 kts 204°
2026-05-04 23:41 50.01934 18.68546 17732 ft 372 kts 204°
2026-05-04 23:42 49.99531 18.66960 18335 ft 375 kts 204°
2026-05-04 23:42 49.97119 18.65376 18845 ft 379 kts 204°
2026-05-04 23:42 49.94680 18.63776 19337 ft 382 kts 204°
2026-05-04 23:42 49.92212 18.62157 19838 ft 386 kts 204°
2026-05-04 23:43 49.89727 18.60528 20318 ft 390 kts 204°
2026-05-04 23:43 49.87227 18.58821 20791 ft 394 kts 208°
2026-05-04 23:43 49.84898 18.56552 21250 ft 397 kts 218°
2026-05-04 23:43 49.82864 18.53658 21691 ft 400 kts 229°
2026-05-04 23:44 49.81113 18.50366 22128 ft 403 kts 231°
2026-05-04 23:44 49.79345 18.46985 22565 ft 406 kts 231°
2026-05-04 23:44 49.77552 18.43573 22993 ft 410 kts 231°
2026-05-04 23:44 49.75741 18.40143 23414 ft 413 kts 231°
2026-05-04 23:45 49.73915 18.36694 23778 ft 416 kts 231°
2026-05-04 23:45 49.72074 18.33221 24133 ft 418 kts 231°
2026-05-04 23:45 49.70236 18.29755 24479 ft 418 kts 231°
2026-05-04 23:45 49.68387 18.26275 24845 ft 419 kts 231°
2026-05-04 23:46 49.66534 18.22792 25134 ft 421 kts 231°
2026-05-04 23:46 49.64667 18.19288 25377 ft 422 kts 231°
2026-05-04 23:46 49.62796 18.15774 25620 ft 424 kts 231°
2026-05-04 23:46 49.60926 18.12257 25862 ft 425 kts 231°
2026-05-04 23:47 49.59040 18.08716 25958 ft 429 kts 231°
2026-05-04 23:47 49.57144 18.05166 25973 ft 431 kts 231°
2026-05-04 23:47 49.55227 18.01586 25977 ft 432 kts 231°
2026-05-04 23:47 49.53313 17.98018 25978 ft 432 kts 231°
2026-05-04 23:48 49.51398 17.94452 25976 ft 433 kts 231°
2026-05-04 23:48 49.49481 17.90889 25983 ft 432 kts 231°
2026-05-04 23:48 49.47585 17.87367 25986 ft 433 kts 231°
2026-05-04 23:48 49.45659 17.83800 25993 ft 433 kts 231°
2026-05-04 23:49 49.43738 17.80247 25993 ft 433 kts 231°
2026-05-04 23:49 49.41813 17.76683 25994 ft 433 kts 231°
2026-05-04 23:49 49.39890 17.73128 25984 ft 433 kts 231°
2026-05-04 23:49 49.37964 17.69574 25988 ft 433 kts 231°
2026-05-04 23:50 49.36033 17.66011 25986 ft 433 kts 231°
2026-05-04 23:50 49.34110 17.62467 25981 ft 432 kts 231°
2026-05-04 23:50 49.32182 17.58922 25973 ft 432 kts 231°
2026-05-04 23:50 49.30255 17.55391 25966 ft 432 kts 231°
2026-05-04 23:51 49.28323 17.51857 25967 ft 433 kts 231°
2026-05-04 23:51 49.26388 17.48314 25857 ft 435 kts 231°
2026-05-04 23:51 49.24450 17.44765 25560 ft 435 kts 231°
2026-05-04 23:51 49.22513 17.41220 25176 ft 433 kts 231°
2026-05-04 23:52 49.20581 17.37693 24789 ft 430 kts 231°
2026-05-04 23:52 49.18687 17.34249 24423 ft 428 kts 230°
2026-05-04 23:52 49.16776 17.30783 24045 ft 425 kts 230°
2026-05-04 23:52 49.14874 17.27334 23675 ft 423 kts 230°
2026-05-04 23:53 49.12982 17.23904 23257 ft 421 kts 230°
2026-05-04 23:53 49.11105 17.20503 22819 ft 418 kts 230°
2026-05-04 23:53 49.09240 17.17125 22382 ft 415 kts 230°
2026-05-04 23:53 49.07384 17.13771 21958 ft 412 kts 230°
2026-05-04 23:54 49.05544 17.10454 21545 ft 409 kts 230°
2026-05-04 23:54 49.03713 17.07162 21127 ft 405 kts 230°
2026-05-04 23:54 49.01897 17.03894 20716 ft 402 kts 230°
2026-05-04 23:54 49.00097 17.00655 20316 ft 400 kts 230°
2026-05-04 23:55 48.98299 16.97426 19921 ft 397 kts 229°
2026-05-04 23:55 48.96523 16.94247 19525 ft 394 kts 229°
2026-05-04 23:55 48.92994 16.87939 18765 ft 389 kts 229°
2026-05-04 23:56 48.91244 16.84812 18389 ft 387 kts 229°
2026-05-04 23:56 48.89506 16.81709 17969 ft 384 kts 229°
2026-05-04 23:56 48.87773 16.78619 17550 ft 382 kts 229°
2026-05-04 23:56 48.86051 16.75556 17119 ft 380 kts 229°
2026-05-04 23:57 48.84343 16.72522 16711 ft 378 kts 229°
2026-05-04 23:57 48.82634 16.69496 16296 ft 376 kts 227°
2026-05-04 23:57 48.80702 16.66865 15888 ft 373 kts 214°
2026-05-04 23:57 48.78432 16.65014 15491 ft 371 kts 201°
2026-05-04 23:58 48.75940 16.64016 15093 ft 370 kts 188°
2026-05-04 23:58 48.73408 16.63909 14705 ft 369 kts 176°
2026-05-04 23:58 48.70852 16.64606 14318 ft 369 kts 169°
2026-05-04 23:58 48.68350 16.65429 13940 ft 367 kts 169°
2026-05-04 23:59 48.65870 16.66247 13543 ft 365 kts 169°
2026-05-04 23:59 48.63424 16.67052 13129 ft 363 kts 169°
2026-05-04 23:59 48.60947 16.67609 12709 ft 359 kts 179°
2026-05-04 23:59 48.58475 16.67275 12298 ft 356 kts 193°
2026-05-05 00:00 48.56152 16.66061 11791 ft 353 kts 206°
2026-05-05 00:00 48.55425 16.65462 11603 ft 352 kts 211°
2026-05-05 00:00 48.52366 16.61485 10807 ft 345 kts 224°
2026-05-05 00:00 48.50696 16.58999 10712 ft 329 kts 224°
2026-05-05 00:01 48.49096 16.56635 10617 ft 315 kts 224°
2026-05-05 00:01 48.47561 16.54379 10486 ft 303 kts 223°
2026-05-05 00:01 48.46076 16.52201 10352 ft 292 kts 223°
2026-05-05 00:01 48.44644 16.50108 10207 ft 282 kts 223°
2026-05-05 00:02 48.43264 16.48093 10093 ft 272 kts 223°
2026-05-05 00:02 48.41932 16.46147 9917 ft 264 kts 223°
2026-05-05 00:02 48.40596 16.44195 9356 ft 270 kts 223°
2026-05-05 00:02 48.39239 16.42207 8870 ft 273 kts 223°
2026-05-05 00:03 48.37869 16.40197 8383 ft 276 kts 223°
2026-05-05 00:03 48.36958 16.38860 8062 ft 277 kts 223°
2026-05-05 00:03 48.35573 16.36830 7575 ft 280 kts 223°
2026-05-05 00:03 48.34172 16.34781 7086 ft 280 kts 224°
2026-05-05 00:04 48.32800 16.32781 6613 ft 270 kts 224°
2026-05-05 00:04 48.31479 16.30854 6263 ft 256 kts 224°
2026-05-05 00:04 48.30260 16.29080 6207 ft 234 kts 224°
2026-05-05 00:04 48.29095 16.27389 6132 ft 231 kts 224°
2026-05-05 00:05 48.27578 16.25239 5991 ft 219 kts 217°
2026-05-05 00:05 48.26722 16.24441 5929 ft 211 kts 205°
2026-05-05 00:05 48.24933 16.23773 5836 ft 193 kts 183°
2026-05-05 00:05 48.24046 16.23844 5765 ft 187 kts 172°
2026-05-05 00:06 48.22801 16.24385 5447 ft 191 kts 158°
2026-05-05 00:06 48.21660 16.25474 4924 ft 204 kts 141°
2026-05-05 00:06 48.20753 16.27153 4492 ft 210 kts 121°
2026-05-05 00:06 48.20114 16.29106 4173 ft 207 kts 118°
2026-05-05 00:07 48.19498 16.31022 3886 ft 202 kts 119°
2026-05-05 00:07 48.18894 16.32897 3613 ft 197 kts 119°
2026-05-05 00:07 48.18304 16.34728 3363 ft 193 kts 119°
2026-05-05 00:07 48.17718 16.36544 3099 ft 189 kts 120°
2026-05-05 00:08 48.17157 16.38281 2846 ft 185 kts 120°
2026-05-05 00:08 48.16603 16.39995 2598 ft 181 kts 120°
2026-05-05 00:08 48.16064 16.41664 2357 ft 173 kts 121°
2026-05-05 00:08 48.15563 16.43219 2144 ft 157 kts 121°
2026-05-05 00:09 48.15108 16.44627 1903 ft 144 kts 124°
2026-05-05 00:09 48.14681 16.45943 1717 ft 138 kts 125°
2026-05-05 00:09 48.14264 16.47227 1526 ft 135 kts 125°
2026-05-05 00:09 48.13853 16.48489 1341 ft 136 kts 123°
2026-05-05 00:10 48.13441 16.49760 1157 ft 135 kts 122°
2026-05-05 00:10 48.13029 16.51027 983 ft 135 kts 117°
2026-05-05 00:10 48.12626 16.52270 799 ft 133 kts 118°
2026-05-05 00:10 48.12233 16.53500 642 ft 133 kts 118°
2026-05-05 00:11 48.11854 16.54639 618 ft 101 kts 115°
2026-05-05 00:11 48.11625 16.55347 616 ft 51 kts 115°
2026-05-05 00:11 48.11564 16.55544 615 ft 16 kts 114°
2026-05-05 00:11 48.11519 16.55706 620 ft 17 kts 111°
2026-05-05 00:12 48.11498 16.55887 609 ft 18 kts 91°
2026-05-05 00:12 48.11501 16.55990 609 ft 0 kts 86°
2026-05-05 00:13 48.11504 16.56044 609 ft 4 kts 85°
2026-05-05 00:13 48.11507 16.56077 609 ft 3 kts 80°
2026-05-05 00:13 48.11529 16.56126 613 ft 3 kts 36°
2026-05-05 00:14 48.11557 16.56153 618 ft 13 kts 28°
2026-05-05 00:14 48.11641 16.56226 611 ft 13 kts 40°
2026-05-05 00:14 48.11723 16.56293 618 ft 13 kts 26°
2026-05-05 00:14 48.11749 16.56395 609 ft 13 kts 109°
2026-05-05 00:15 48.11710 16.56484 614 ft 8 kts 160°
2026-05-05 00:15 48.11668 16.56452 617 ft 6 kts 201°
2026-05-05 00:15 48.11655 16.56443 609 ft 1 kts 204°
2026-05-05 00:15 48.11651 16.56441 614 ft 0 kts 204°